Weather observations for the past three days for
Chester, Chester Airport
Imperial (Metric)
Date Time (edt) Wind (mph) Vis. (mi.) Weather Sky Cond. Temperature (ºF) Relative Humidity Wind Chill (°F) Heat Index (°F) Pressure Precipitation (in)
Air Dwpt 6 hour altimeter (in) sea level (mb) 1 hr 3 hr 6 hr
Max. Min.
21 08:35 Calm 10.00 Partly Cloudy SCT070 SCT080 75.2 69.8 83% 75 30.04 0.0
21 08:15 Calm 10.00 Partly Cloudy SCT070 SCT080 73.4 69.8 89% 30.04 0.0
21 07:55 Calm 10.00 Partly Cloudy FEW060 SCT070 73.4 69.8 89% 30.04 0.0
21 07:35 Calm 10.00 Mostly Cloudy SCT060 BKN075 71.6 69.8 94% 30.03 0.0
21 07:15 Calm 10.00 Partly Cloudy SCT065 SCT085 71.6 69.8 94% 30.03 0.0
21 06:55 Calm 10.00 A Few Clouds FEW085 69.8 69.8 100% 30.03 0.0
21 06:35 Calm 10.00 Partly Cloudy FEW070 SCT085 69.8 69.8 100% 30.03 0.0
21 06:15 Calm 8.00 Mostly Cloudy BKN048 BKN060 68 68 100% 30.02 0.0
21 05:55 Calm 9.00 Mostly Cloudy BKN046 BKN060 68 68 100% 30.02 0.0
21 05:35 Calm 9.00 Mostly Cloudy FEW049 BKN060 69.8 69.8 100% 30.02 0.0
21 05:15 Calm 10.00 Partly Cloudy SCT055 SCT065 69.8 69.8 100% 30.02 0.0
21 04:55 Calm 10.00 Partly Cloudy FEW041 FEW050 SCT060 69.8 69.8 100% 30.02 0.0
21 04:35 Calm 10.00 Mostly Cloudy FEW039 SCT049 BKN075 69.8 69.8 100% 30.02 0.0
21 04:15 Calm 10.00 Mostly Cloudy SCT041 BKN047 BKN060 69.8 69.8 100% 30.02 0.0
21 03:55 Calm 8.00 Light Rain FEW025 OVC045 68 68 100% 30.02 0.0
21 03:35 S 5 G 12 3.00 Light Rain FEW001 SCT022 BKN042 69.8 68 94% 30.02 0.0
21 03:15 Calm 9.00 Light Rain FEW028 SCT045 BKN075 71.6 68 88% 30.03 0.0
21 02:55 Calm 10.00 Partly Cloudy FEW043 FEW050 SCT060 71.6 68 88% 30.03 0.0
21 02:35 Calm 10.00 Mostly Cloudy FEW037 FEW049 BKN065 71.6 68 88% 30.03 0.0
21 02:15 Vrbl 5 9.00 Light Rain FEW037 SCT049 BKN075 71.6 68 88% 30.03 0.0
21 01:55 SW 5 10.00 A Few Clouds FEW070 FEW085 73.4 68 83% 30.04 0.0
21 01:35 Vrbl 5 10.00 Partly Cloudy SCT070 73.4 68 83% 30.04 0.0
21 01:15 SW 5 10.00 Partly Cloudy FEW046 SCT080 73.4 68 83% 30.04 0.0
21 00:55 SW 6 G 12 9.00 Light Rain SCT046 SCT065 73.4 68 83% 30.04 0.0
21 00:35 SW 8 10.00 A Few Clouds FEW070 73.4 68 83% 30.04 0.0
20 23:55 Calm 10.00 Fair CLR 73.4 66.2 78% 30.05 0.0
20 23:35 Vrbl 5 10.00 A Few Clouds FEW110 73.4 66.2 78% 30.05 0.0
20 23:15 SW 6 10.00 A Few Clouds FEW043 73.4 66.2 78% 30.05 0.0
20 22:55 Vrbl 3 10.00 Fair CLR 73.4 66.2 78% 30.05 0.0
20 22:35 Vrbl 3 10.00 Fair CLR 73.4 66.2 78% 30.06 0.0
20 22:15 Vrbl 7 10.00 Fair CLR 73.4 66.2 78% 30.06 0.0
20 21:55 Vrbl 5 10.00 Fair CLR 73.4 66.2 78% 30.06 0.0
20 21:35 S 5 10.00 Fair CLR 73.4 66.2 78% 30.06 0.0
20 21:15 S 6 10.00 Fair CLR 73.4 66.2 78% 30.06 0.0
20 20:55 Vrbl 3 10.00 Fair CLR 73.4 66.2 78% 30.06 0.0
20 20:35 SW 7 10.00 Fair CLR 73.4 66.2 78% 30.05 0.0
20 20:15 S 5 10.00 Fair CLR 75.2 66.2 74% 77 30.05 0.0
20 19:55 S 6 10.00 Fair CLR 75.2 66.2 74% 77 30.05 0.0
20 19:35 Vrbl 5 10.00 Fair CLR 75.2 66.2 74% 77 30.06 0.0
20 19:15 Vrbl 7 10.00 Fair CLR 77 66.2 69% 79 30.06 0.0
20 18:55 S 7 10.00 Fair CLR 77 64.4 65% 79 30.05 0.0
20 18:35 SW 8 G 14 10.00 Fair CLR 78.8 64.4 61% 81 30.05 0.0
20 18:15 S 8 G 18 10.00 A Few Clouds FEW110 78.8 66.2 65% 81 30.05 0.0
20 17:55 S 12 10.00 Fair CLR 78.8 66.2 65% 81 30.05 0.0
20 17:35 S 9 10.00 Fair CLR 80.6 68 66% 83 30.05 0.0
20 17:15 S 8 10.00 Fair CLR 80.6 68 66% 83 30.06 0.0
20 16:55 SW 10 G 17 10.00 A Few Clouds FEW044 FEW095 82.4 68 62% 85 30.06 0.0
20 16:35 S 8 G 14 10.00 Partly Cloudy FEW044 FEW095 SCT110 82.4 68 62% 85 30.06 0.0
20 16:15 S 8 10.00 Partly Cloudy FEW034 FEW039 SCT045 80.6 68 66% 83 30.06 0.0
20 15:55 Vrbl 6 10.00 Fair CLR 82.4 68 62% 85 30.06 0.0
20 15:35 Vrbl 7 10.00 A Few Clouds FEW035 FEW047 FEW065 84.2 66.2 55% 87 30.07 0.0
20 15:15 S 10 G 18 10.00 A Few Clouds FEW034 FEW049 82.4 66.2 58% 85 30.07 0.0
20 14:55 Vrbl 6 G 13 10.00 Fair CLR 82.4 66.2 58% 85 30.08 0.0
20 14:35 Vrbl 6 10.00 Fair CLR 82.4 64.4 55% 84 30.08 0.0
20 14:15 Vrbl 7 9.00 A Few Clouds FEW050 FEW060 FEW075 82.4 60.8 48% 83 30.09 0.0
20 13:55 S 6 10.00 Partly Cloudy FEW040 FEW050 SCT075 82.4 60.8 48% 83 30.1 0.0
20 13:35 S 8 10.00 Partly Cloudy FEW037 FEW044 SCT110 82.4 60.8 48% 83 30.1 0.0
20 13:15 Vrbl 7 10.00 Fair CLR 82.4 62.6 51% 83 30.11 0.0
20 12:55 S 5 10.00 Partly Cloudy FEW031 FEW050 SCT090 80.6 60.8 51% 81 30.11 0.0
20 12:35 Calm 10.00 A Few Clouds FEW055 FEW070 FEW090 80.6 64.4 58% 82 30.12 0.0
20 12:15 Vrbl 5 10.00 Fair CLR 82.4 64.4 55% 84 30.12 0.0
20 11:55 Vrbl 6 10.00 Fair CLR 80.6 66.2 62% 83 30.12 0.0
20 11:35 Calm 10.00 A Few Clouds FEW037 FEW048 FEW065 80.6 66.2 62% 83 30.12 0.0
20 11:15 SW 5 10.00 Partly Cloudy FEW034 FEW050 SCT120 80.6 62.6 54% 82 30.12 0.0
20 10:55 S 6 10.00 Partly Cloudy FEW055 FEW075 SCT110 80.6 64.4 58% 82 30.12 0.0
20 10:35 S 5 10.00 Fair CLR 80.6 64.4 58% 82 30.13 0.0
20 10:15 Calm 10.00 Fair CLR 80.6 62.6 54% 82 30.13 0.0
20 09:55 Calm 10.00 Fair CLR 80.6 62.6 54% 82 30.13 0.0
20 09:35 Calm 10.00 Fair CLR 78.8 64.4 61% 81 30.13 0.0
20 09:15 Calm 10.00 Fair CLR 77 64.4 65% 79 30.13 0.0
20 08:55 Calm 10.00 Fair CLR 77 64.4 65% 79 30.13 0.0
20 08:35 Calm 10.00 Fair CLR 75.2 66.2 74% 77 30.14 0.0
20 08:15 Calm 10.00 Fair CLR 75.2 66.2 74% 77 30.14 0.0
20 07:55 Calm 10.00 Fair CLR 73.4 66.2 78% 30.14 0.0
20 07:35 Vrbl 6 10.00 Fair CLR 71.6 66.2 83% 30.14 0.0
20 07:15 SW 5 10.00 Fair CLR 71.6 66.2 83% 30.14 0.0
20 06:55 SW 5 10.00 Fair CLR 69.8 66.2 88% 30.13 0.0
20 06:35 SW 3 10.00 Fair CLR 68 66.2 94% 30.13 0.0
20 06:15 Vrbl 3 10.00 A Few Clouds FEW060 68 66.2 94% 30.13 0.0
20 05:55 SW 3 10.00 Fair CLR 66.2 66.2 100% 30.13 0.0
20 05:35 SW 5 10.00 Fair CLR 66.2 64.4 94% 30.13 0.0
20 05:15 SW 3 10.00 Fair CLR 66.2 64.4 94% 30.12 0.0
20 04:55 SW 3 10.00 Fair CLR 66.2 64.4 94% 30.12 0.0
20 04:35 Calm 10.00 Fair CLR 68 64.4 88% 30.12 0.0
20 04:15 Calm 10.00 Fair CLR 66.2 64.4 94% 30.12 0.0
20 03:55 SW 5 10.00 Fair CLR 66.2 66.2 100% 30.12 0.0
20 03:35 Calm 10.00 Fair CLR 66.2 66.2 100% 30.12 0.0
20 03:15 W 5 10.00 Fair CLR 66.2 66.2 100% 30.12 0.0
20 02:55 W 3 10.00 Fair CLR 66.2 66.2 100% 30.13 0.0
20 02:35 SW 5 10.00 Fair CLR 66.2 66.2 100% 30.13 0.0
20 02:15 SW 3 10.00 Fair CLR 66.2 66.2 100% 30.13 0.0
20 01:55 SW 3 10.00 Fair CLR 68 68 100% 30.13 0.0
20 01:35 SW 5 10.00 Fair CLR 68 68 100% 30.13 0.0
20 01:15 SW 5 10.00 Fair CLR 68 68 100% 30.14 0.0
20 00:55 SW 5 10.00 Fair CLR 68 68 100% 30.14 0.0
20 00:35 Vrbl 5 10.00 Fair CLR 68 68 100% 30.14 0.0
20 00:15 SW 5 10.00 Fair CLR 68 68 100% 30.14 0.0
19 23:55 SW 6 10.00 Fair CLR 69.8 68 94% 30.14 0.0
19 23:35 SW 6 10.00 Fair CLR 69.8 66.2 88% 30.13 0.0
19 23:15 S 6 10.00 Fair CLR 68 64.4 88% 30.13 0.0
19 22:55 Calm 10.00 Fair CLR 68 64.4 88% 30.13 0.0
19 22:35 SW 3 10.00 Fair CLR 66.2 62.6 88% 30.13 0.0
19 22:15 Calm 10.00 Fair CLR 68 64.4 88% 30.13 0.0
19 21:55 Calm 10.00 Fair CLR 68 64.4 88% 30.13 0.0
19 21:35 Calm 10.00 Fair CLR 68 62.6 83% 30.13 0.0
19 21:15 Calm 10.00 Fair CLR 69.8 62.6 78% 30.12 0.0
19 20:55 Calm 10.00 Fair CLR 69.8 62.6 78% 30.12 0.0
19 20:35 Calm 10.00 Fair CLR 71.6 62.6 73% 30.12 0.0
19 20:15 Calm 10.00 Fair CLR 71.6 62.6 73% 30.11 0.0
19 19:55 Calm 10.00 Fair CLR 73.4 62.6 69% 30.11 0.0
19 19:35 S 3 10.00 Fair CLR 75.2 62.6 65% 77 30.1 0.0
19 19:15 Calm 10.00 Fair CLR 77 62.6 61% 79 30.1 0.0
19 18:55 S 6 10.00 Fair CLR 78.8 62.6 58% 80 30.1 0.0
19 18:35 S 6 10.00 Fair CLR 78.8 62.6 58% 80 30.1 0.0
19 18:15 S 5 10.00 Fair CLR 78.8 60.8 54% 80 30.09 0.0
19 17:55 Vrbl 6 10.00 A Few Clouds FEW050 80.6 60.8 51% 81 30.09 0.0
19 17:35 S 7 10.00 Partly Cloudy FEW044 SCT050 80.6 60.8 51% 81 30.09 0.0
19 17:15 S 7 10.00 Partly Cloudy SCT049 SCT055 SCT085 78.8 60.8 54% 80 30.09 0.0
19 16:55 S 7 10.00 Mostly Cloudy SCT048 BKN055 BKN090 80.6 60.8 51% 81 30.1 0.0
19 16:35 Vrbl 6 10.00 Mostly Cloudy SCT042 SCT049 BKN095 80.6 60.8 51% 81 30.1 0.0
19 16:15 Calm 10.00 Partly Cloudy FEW043 FEW050 SCT095 78.8 62.6 58% 80 30.1 0.0
19 15:55 Vrbl 6 10.00 Partly Cloudy FEW044 SCT050 SCT120 80.6 62.6 54% 82 30.09 0.0
19 15:35 S 6 10.00 Partly Cloudy SCT050 SCT060 80.6 59 48% 81 30.1 0.0
19 15:15 NW 6 10.00 Partly Cloudy FEW042 SCT050 SCT075 82.4 55.4 40% 82 30.1 0.0
19 14:55 Vrbl 3 10.00 Partly Cloudy FEW050 SCT075 SCT100 82.4 55.4 40% 82 30.1 0.0
19 14:35 NW 8 10.00 Partly Cloudy FEW045 SCT050 SCT095 80.6 55.4 42% 81 30.1 0.0
19 14:15 N 9 10.00 A Few Clouds FEW048 FEW080 FEW120 80.6 53.6 39% 80 30.11 0.0
19 13:55 Vrbl 3 10.00 Fair CLR 80.6 55.4 42% 81 30.11 0.0
19 13:35 Calm 10.00 A Few Clouds FEW047 FEW080 FEW100 78.8 55.4 45% 79 30.11 0.0
19 13:15 W 5 10.00 Fair CLR 80.6 53.6 39% 80 30.11 0.0
19 12:55 NW 6 G 12 10.00 Fair CLR 78.8 53.6 42% 79 30.11 0.0
19 12:35 N 7 10.00 Fair CLR 80.6 53.6 39% 80 30.11 0.0
19 12:15 N 8 10.00 Fair CLR 78.8 55.4 45% 79 30.11 0.0
19 11:55 N 8 10.00 Fair CLR 78.8 55.4 45% 79 30.11 0.0
19 11:15 N 8 10.00 Fair CLR 77 55.4 47% 79 30.12 0.0
19 10:55 Vrbl 5 G 12 10.00 Fair CLR 75.2 57.2 54% 78 30.12 0.0
19 10:35 NW 10 10.00 Fair CLR 75.2 57.2 54% 78 30.12 0.0
19 10:15 N 8 10.00 Fair CLR 75.2 57.2 54% 78 30.11 0.0
19 09:55 N 9 10.00 Fair CLR 73.4 57.2 57% 30.11 0.0
19 09:35 NW 10 10.00 Fair CLR 73.4 57.2 57% 30.11 0.0
19 09:15 NW 12 10.00 Fair CLR 73.4 57.2 57% 30.11 0.0
19 08:55 NW 8 G 16 10.00 Fair CLR 71.6 57.2 61% 30.11 0.0
19 08:35 NW 13 10.00 Fair CLR 71.6 57.2 61% 30.11 0.0
19 08:15 NW 9 10.00 Fair CLR 69.8 57.2 64% 30.1 0.0
19 07:55 N 9 10.00 Fair CLR 69.8 59 69% 30.1 0.0
19 07:35 N 10 10.00 Fair CLR 68 59 73% 30.09 0.0
19 07:15 N 6 10.00 Fair CLR 68 59 73% 30.08 0.0
19 06:55 NW 6 10.00 Fair CLR 66.2 59 78% 30.08 0.0
19 06:35 NW 7 10.00 Fair CLR 64.4 59 83% 30.07 0.0
19 06:15 N 3 10.00 Fair CLR 64.4 59 83% 30.06 0.0
19 05:55 Calm 10.00 Fair CLR 62.6 59 88% 30.05 0.0
19 05:35 NW 6 10.00 Fair CLR 64.4 57.2 78% 30.05 0.0
19 05:15 NW 7 10.00 Fair CLR 64.4 57.2 78% 30.05 0.0
19 04:55 NW 6 10.00 Fair CLR 64.4 57.2 78% 30.03 0.0
19 04:35 NW 8 10.00 Fair CLR 64.4 57.2 78% 30.03 0.0
19 04:15 NW 6 10.00 Fair CLR 64.4 57.2 78% 30.02 0.0
19 03:55 NW 6 10.00 Fair CLR 64.4 57.2 78% 30.02 0.0
19 03:35 NW 5 10.00 Fair CLR 64.4 57.2 78% 30.01 0.0
19 03:15 NW 5 10.00 Fair CLR 64.4 57.2 78% 30.01 0.0
19 02:55 NW 3 10.00 Fair CLR 66.2 57.2 73% 30.01 0.0
19 02:35 NW 6 10.00 Fair CLR 66.2 57.2 73% 30.01 0.0
19 02:15 NW 7 10.00 Fair CLR 66.2 57.2 73% 30.01 0.0
19 01:55 NW 7 10.00 Fair CLR 68 57.2 69% 30.01 0.0
19 01:35 NW 8 10.00 Fair CLR 68 57.2 69% 30.01 0.0
19 01:15 NW 9 10.00 Fair CLR 68 57.2 69% 30.01 0.0
19 00:55 NW 9 10.00 Fair CLR 68 57.2 69% 30.01 0.0
19 00:35 NW 8 10.00 Fair CLR 69.8 57.2 64% 30.01 0.0
19 00:15 NW 7 10.00 Fair CLR 69.8 57.2 64% 30 0.0
18 23:55 NW 9 10.00 A Few Clouds FEW065 71.6 57.2 61% 30 0.0
18 23:35 NW 8 10.00 A Few Clouds FEW060 FEW070 71.6 57.2 61% 30 0.0
18 23:15 NW 7 10.00 Fair CLR 71.6 59 65% 30 0.0
18 22:55 NW 5 10.00 A Few Clouds FEW055 71.6 59 65% 29.99 0.0
18 22:35 Calm 10.00 Partly Cloudy FEW050 SCT055 SCT070 71.6 60.8 69% 29.99 0.0
18 22:15 NW 6 10.00 Mostly Cloudy SCT050 BKN060 BKN070 71.6 60.8 69% 29.98 0.0
18 21:55 NW 5 10.00 A Few Clouds FEW050 71.6 60.8 69% 29.98 0.0
18 21:35 NW 5 10.00 Partly Cloudy FEW060 SCT070 71.6 62.6 73% 29.97 0.0
18 21:15 NW 3 10.00 Partly Cloudy SCT060 73.4 64.4 74% 29.97 0.0
18 20:55 NW 3 10.00 A Few Clouds FEW070 73.4 64.4 74% 29.96 0.0
18 20:35 Calm 10.00 Fair CLR 73.4 64.4 74% 29.95 0.0
18 20:15 NW 3 10.00 A Few Clouds FEW070 75.2 66.2 74% 77 29.95 0.0
18 19:55 Calm 10.00 A Few Clouds FEW049 FEW070 77 66.2 69% 79 29.94 0.0
18 19:35 NW 3 10.00 Fair CLR 77 66.2 69% 79 29.93 0.0
18 19:15 NW 6 10.00 Fair CLR 77 66.2 69% 79 29.92 0.0
18 18:55 NW 5 10.00 Fair CLR 78.8 66.2 65% 81 29.91 0.0
18 18:35 Calm 10.00 Fair CLR 78.8 68 70% 81 29.91 0.0
18 18:15 Calm 10.00 Fair CLR 80.6 68 66% 83 29.91 0.0
18 17:55 Calm 10.00 Fair CLR 80.6 66.2 62% 83 29.91 0.0
18 17:35 Calm 10.00 Fair CLR 80.6 64.4 58% 82 29.9 0.0
18 17:15 NW 5 10.00 Fair CLR 82.4 59 45% 82 29.9 0.0
18 16:55 NW 6 10.00 Fair CLR 84.2 59 43% 84 29.9 0.0
18 16:35 Vrbl 5 10.00 A Few Clouds FEW050 FEW100 86 60.8 43% 86 29.9 0.0
18 16:15 Vrbl 7 10.00 Partly Cloudy FEW032 FEW041 SCT050 87.8 60.8 40% 88 29.91 0.0
18 15:55 Vrbl 6 10.00 Fair CLR 87.8 60.8 40% 88 29.91 0.0
18 15:35 NW 7 G 16 10.00 A Few Clouds FEW046 FEW110 87.8 60.8 40% 88 29.91 0.0
18 15:15 Vrbl 6 10.00 A Few Clouds FEW046 87.8 62.6 43% 88 29.91 0.0
18 14:55 N 8 10.00 Partly Cloudy FEW041 SCT047 SCT070 87.8 62.6 43% 88 29.91 0.0
18 14:35 Vrbl 6 10.00 Mostly Cloudy BKN040 BKN047 BKN070 86 62.6 46% 87 29.91 0.0
18 14:15 N 7 10.00 Partly Cloudy SCT039 84.2 64.4 51% 86 29.9 0.0
18 13:55 Vrbl 5 G 12 10.00 Fair CLR 86 64.4 49% 87 29.9 0.0
18 13:35 NW 7 9.00 Fair CLR 84.2 64.4 51% 86 29.9 0.0
18 13:15 N 8 10.00 A Few Clouds FEW075 FEW110 84.2 64.4 51% 86 29.9 0.0
18 12:55 N 8 G 14 10.00 A Few Clouds FEW041 FEW080 FEW110 84.2 64.4 51% 86 29.9 0.0
18 12:35 NW 10 10.00 A Few Clouds FEW037 FEW055 FEW075 82.4 64.4 55% 84 29.9 0.0
18 12:15 Vrbl 7 G 14 10.00 Fair CLR 80.6 66.2 62% 83 29.89 0.0
18 11:55 NW 8 G 14 10.00 Fair CLR 80.6 66.2 62% 83 29.9 0.0
18 11:35 NW 9 G 20 10.00 Partly Cloudy FEW037 FEW048 SCT100 80.6 64.4 58% 82 29.9 0.0
18 11:15 NW 10 10.00 Partly Cloudy FEW039 FEW050 SCT085 80.6 68 66% 83 29.9 0.0
18 10:55 NW 10 10.00 Partly Cloudy FEW044 FEW060 SCT095 77 68 74% 79 29.9 0.0
18 10:35 NW 8 10.00 Fair CLR 77 68 74% 79 29.89 0.0
18 10:15 NW 6 10.00 A Few Clouds FEW075 FEW095 FEW110 77 69.8 79% 79 29.89 0.0
18 09:55 NW 9 10.00 A Few Clouds FEW070 FEW095 FEW110 77 69.8 79% 79 29.88 0.0
18 09:35 N 9 10.00 Fair CLR 77 69.8 79% 79 29.87 0.0
18 09:15 Vrbl 6 10.00 A Few Clouds FEW090 FEW110 77 71.6 83% 78 29.87 0.0
18 08:55 NW 7 10.00 Fair CLR 75.2 71.6 89% 75 29.87 0.0
Date Time (edt) Wind (mph) Vis. (mi.) Weather Sky Cond. Air Dwpt Max. Min. Relative Humidity Wind Chill (°F) Heat Index (°F) altimeter (in) sea level (mb) 1 hr 3 hr 6 hr
6 hour
Temperature (ºF) Pressure Precipitation (in)